Radiation Dose at Monitoring Post of Fukushima Daini Nuclear Power Station
Date,Time,MP-1(microSv/h),MP-2(microSv/h),MP-3(microSv/h),MP-4(microSv/h),MP-5(microSv/h),MP-6(microSv/h),MP-7(microSv/h),Wind Direction,Wind Velocity(m/s),Rain
2018/01/25,00:00,0.304,0.187,0.311,0.299,0.274,0.160,0.098,west,4.9,No
2018/01/25,00:10,0.303,0.187,0.312,0.300,0.274,0.160,0.097,west,2.9,No
2018/01/25,00:20,0.304,0.187,0.312,0.300,0.273,0.158,0.097,west,2.6,No
2018/01/25,00:30,0.304,0.186,0.311,0.300,0.273,0.160,0.096,west-northwest,0.6,No
2018/01/25,00:40,0.304,0.186,0.312,0.299,0.274,0.159,0.097,-,CALM,No
2018/01/25,00:50,0.303,0.186,0.311,0.298,0.272,0.160,0.097,west-northwest,1.6,No
2018/01/25,01:00,0.303,0.187,0.313,0.299,0.273,0.159,0.097,west-northwest,0.8,No
2018/01/25,01:10,0.303,0.186,0.311,0.298,0.273,0.160,0.097,west-northwest,1.4,No
2018/01/25,01:20,0.303,0.187,0.313,0.299,0.271,0.159,0.097,southwest,1.3,No
2018/01/25,01:30,0.303,0.186,0.311,0.300,0.273,0.158,0.097,-,CALM,No
2018/01/25,01:40,0.302,0.186,0.311,0.300,0.274,0.159,0.097,west-southwest,2.0,No
2018/01/25,01:50,0.305,0.187,0.311,0.299,0.274,0.159,0.097,west-northwest,2.8,No
2018/01/25,02:00,0.305,0.187,0.311,0.300,0.273,0.159,0.097,west,1.1,No
2018/01/25,02:10,0.303,0.187,0.311,0.299,0.273,0.159,0.097,southwest,1.8,No
2018/01/25,02:20,0.304,0.186,0.310,0.300,0.273,0.158,0.097,west-southwest,4.3,No
2018/01/25,02:30,0.304,0.187,0.314,0.298,0.273,0.159,0.097,west,2.4,No
2018/01/25,02:40,0.304,0.187,0.312,0.299,0.273,0.159,0.097,west,2.9,No
2018/01/25,02:50,0.303,0.187,0.313,0.298,0.273,0.159,0.097,west,3.6,No
2018/01/25,03:00,0.304,0.187,0.312,0.300,0.273,0.160,0.097,west,2.9,No
2018/01/25,03:10,0.304,0.187,0.311,0.299,0.273,0.159,0.097,south,0.9,No
2018/01/25,03:20,0.304,0.187,0.311,0.298,0.273,0.160,0.097,southwest,3.2,No
2018/01/25,03:30,0.303,0.187,0.310,0.299,0.274,0.159,0.096,southwest,3.0,No
2018/01/25,03:40,0.304,0.187,0.312,0.299,0.273,0.160,0.097,west-southwest,4.3,No
2018/01/25,03:50,0.304,0.186,0.310,0.300,0.273,0.159,0.098,west-southwest,4.0,No
2018/01/25,04:00,0.304,0.187,0.311,0.299,0.274,0.159,0.096,southwest,4.6,No
2018/01/25,04:10,0.304,0.186,0.312,0.299,0.273,0.158,0.097,south-southwest,3.4,No
2018/01/25,04:20,0.304,0.186,0.311,0.298,0.272,0.159,0.097,south-southwest,2.3,No
2018/01/25,04:30,0.303,0.186,0.311,0.298,0.272,0.159,0.097,south,2.3,No
2018/01/25,04:40,0.304,0.187,0.312,0.299,0.273,0.159,0.097,-,CALM,No
2018/01/25,04:50,0.302,0.186,0.311,0.298,0.271,0.158,0.098,-,CALM,No
2018/01/25,05:00,0.303,0.186,0.312,0.299,0.273,0.159,0.098,north-northwest,1.5,No
2018/01/25,05:10,0.303,0.187,0.311,0.299,0.272,0.159,0.097,west-northwest,1.3,No
2018/01/25,05:20,0.303,0.186,0.313,0.298,0.273,0.159,0.097,west-northwest,2.0,No
2018/01/25,05:30,0.303,0.186,0.311,0.300,0.273,0.159,0.097,west-southwest,2.6,No
2018/01/25,05:40,0.304,0.187,0.312,0.299,0.273,0.159,0.097,northwest,2.8,No
2018/01/25,05:50,0.303,0.187,0.311,0.299,0.275,0.159,0.097,northwest,3.4,No
2018/01/25,06:00,0.305,0.187,0.312,0.299,0.273,0.159,0.097,north-northwest,1.4,No
2018/01/25,06:10,0.303,0.188,0.312,0.299,0.274,0.159,0.097,west,3.0,No
2018/01/25,06:20,0.304,0.188,0.312,0.299,0.274,0.159,0.097,north-northwest,1.1,No
2018/01/25,06:30,0.303,0.187,0.311,0.298,0.276,0.159,0.097,west,2.6,No
2018/01/25,06:40,0.303,0.186,0.312,0.299,0.273,0.159,0.098,north,1.8,No
2018/01/25,06:50,0.304,0.186,0.311,0.299,0.274,0.159,0.097,northwest,2.8,No
2018/01/25,07:00,0.304,0.186,0.311,0.300,0.274,0.160,0.097,north-northeast,1.1,No
2018/01/25,07:10,0.303,0.187,0.313,0.299,0.273,0.159,0.097,northwest,2.0,No
2018/01/25,07:20,0.304,0.187,0.312,0.299,0.275,0.159,0.097,north,1.2,No
2018/01/25,07:30,0.304,0.186,0.313,0.299,0.275,0.159,0.097,north,3.0,No
2018/01/25,07:40,0.303,0.187,0.312,0.299,0.274,0.158,0.097,northwest,1.8,No
2018/01/25,07:50,0.304,0.188,0.312,0.299,0.274,0.159,0.097,north-northwest,2.0,No
2018/01/25,08:00,0.304,0.188,0.312,0.299,0.275,0.158,0.097,north-northwest,2.1,No
2018/01/25,08:10,0.304,0.187,0.312,0.299,0.274,0.159,0.096,north,1.1,No
2018/01/25,08:20,0.303,0.187,0.312,0.300,0.275,0.159,0.097,north,3.1,No
2018/01/25,08:30,0.304,0.187,0.311,0.300,0.274,0.158,0.097,north-northwest,3.0,No
2018/01/25,08:40,0.304,0.187,0.313,0.299,0.273,0.158,0.097,north-northwest,8.4,No
2018/01/25,08:50,0.304,0.188,0.311,0.298,0.274,0.159,0.097,northwest,4.8,No
2018/01/25,09:00,0.305,0.187,0.313,0.298,0.274,0.159,0.097,northwest,7.3,No
2018/01/25,09:10,0.304,0.188,0.313,0.300,0.274,0.159,0.097,northwest,6.6,No
2018/01/25,09:20,0.305,0.187,0.312,0.300,0.275,0.159,0.097,north-northeast,4.6,No
2018/01/25,09:30,0.303,0.187,0.312,0.299,0.274,0.159,0.098,north-northwest,5.2,No
2018/01/25,09:40,0.305,0.187,0.315,0.298,0.276,0.159,0.097,north-northwest,4.5,No
2018/01/25,09:50,0.304,0.187,0.313,0.298,0.276,0.159,0.097,west-northwest,4.1,No
2018/01/25,10:00,0.304,0.188,0.311,0.300,0.274,0.159,0.097,north-northwest,4.0,No
2018/01/25,10:10,0.304,0.188,0.313,0.299,0.274,0.160,0.097,north,5.1,No
2018/01/25,10:20,0.303,0.187,0.313,0.300,0.274,0.159,0.097,north-northwest,4.2,No
2018/01/25,10:30,0.304,0.187,0.313,0.299,0.275,0.160,0.097,west-northwest,7.8,No
2018/01/25,10:40,0.303,0.187,0.313,0.301,0.275,0.160,0.098,west-northwest,9.2,No
2018/01/25,10:50,0.305,0.188,0.313,0.300,0.275,0.159,0.099,northwest,6.8,No
2018/01/25,11:00,0.305,0.187,0.313,0.300,0.275,0.160,0.097,northwest,7.3,No
2018/01/25,11:10,0.305,0.188,0.312,0.300,0.275,0.159,0.098,northwest,7.4,No
2018/01/25,11:20,0.305,0.187,0.313,0.301,0.275,0.159,0.097,west-northwest,10.9,No
2018/01/25,11:30,0.303,0.187,0.310,0.299,0.274,0.160,0.098,west-northwest,9.0,No
2018/01/25,11:40,0.303,0.187,0.311,0.299,0.274,0.160,0.098,west-northwest,8.7,No
2018/01/25,11:50,0.303,0.187,0.313,0.300,0.274,0.160,0.097,west-northwest,8.4,No
2018/01/25,12:00,0.304,0.187,0.313,0.301,0.276,0.160,0.098,northwest,9.8,No
2018/01/25,12:10,0.304,0.187,0.313,0.299,0.274,0.160,0.098,west-northwest,9.5,No
2018/01/25,12:20,0.304,0.187,0.313,0.301,0.273,0.160,0.098,west-northwest,11.2,No
2018/01/25,12:30,0.303,0.189,0.312,0.301,0.274,0.160,0.098,west-northwest,10.1,No
2018/01/25,12:40,0.303,0.188,0.313,0.301,0.276,0.159,0.098,west-northwest,9.0,No
2018/01/25,12:50,0.306,0.188,0.311,0.300,0.277,0.161,0.098,west-northwest,8.1,No
2018/01/25,13:00,0.304,0.188,0.312,0.300,0.273,0.160,0.098,west-northwest,10.6,No
2018/01/25,13:10,0.305,0.188,0.312,0.301,0.274,0.159,0.099,west,11.5,No
2018/01/25,13:20,0.304,0.187,0.314,0.302,0.276,0.160,0.097,west-northwest,7.6,No
2018/01/25,13:30,0.305,0.188,0.312,0.301,0.276,0.160,0.098,west-northwest,9.2,No
2018/01/25,13:40,0.305,0.187,0.314,0.301,0.277,0.161,0.099,west-northwest,6.4,No
2018/01/25,13:50,0.305,0.187,0.312,0.301,0.277,0.161,0.098,northwest,10.1,No
2018/01/25,14:00,0.306,0.188,0.313,0.301,0.274,0.160,0.097,west-northwest,10.0,No
2018/01/25,14:10,0.304,0.188,0.313,0.300,0.275,0.161,0.097,west-northwest,7.7,No
2018/01/25,14:20,0.306,0.188,0.315,0.302,0.274,0.159,0.098,northwest,9.2,No
2018/01/25,14:30,0.306,0.188,0.314,0.302,0.276,0.161,0.097,west-northwest,12.6,No
2018/01/25,14:40,0.307,0.188,0.314,0.302,0.277,0.160,0.098,northwest,7.5,No
2018/01/25,14:50,0.306,0.189,0.315,0.302,0.278,0.160,0.099,northwest,5.5,No
2018/01/25,15:00,0.307,0.188,0.315,0.302,0.278,0.160,0.099,northwest,6.5,No
2018/01/25,15:10,0.306,0.190,0.314,0.302,0.276,0.160,0.099,west-northwest,6.2,No
2018/01/25,15:20,0.305,0.190,0.314,0.303,0.276,0.161,0.098,west,7.3,No
2018/01/25,15:30,0.307,0.188,0.315,0.302,0.277,0.161,0.098,west-northwest,7.8,No
2018/01/25,15:40,0.307,0.189,0.314,0.302,0.276,0.161,0.098,northwest,4.9,No
2018/01/25,15:50,0.306,0.188,0.315,0.302,0.277,0.161,0.098,west-northwest,7.1,No
2018/01/25,16:00,0.308,0.188,0.314,0.301,0.277,0.161,0.098,west-northwest,5.9,No
2018/01/25,16:10,0.305,0.189,0.314,0.303,0.276,0.161,0.097,northwest,2.6,No
2018/01/25,16:20,0.307,0.189,0.314,0.303,0.277,0.160,0.098,northwest,3.4,No
2018/01/25,16:30,0.306,0.188,0.315,0.303,0.277,0.160,0.099,west-northwest,5.5,No
2018/01/25,16:40,0.306,0.187,0.314,0.304,0.275,0.160,0.097,west-northwest,5.1,No
2018/01/25,16:50,0.307,0.189,0.314,0.303,0.276,0.161,0.098,west-northwest,3.9,No
2018/01/25,17:00,0.305,0.189,0.315,0.303,0.277,0.161,0.098,west,5.8,No
2018/01/25,17:10,0.307,0.188,0.313,0.304,0.276,0.160,0.098,west,10.0,No
2018/01/25,17:20,0.307,0.189,0.314,0.303,0.276,0.160,0.097,west-northwest,6.2,No
2018/01/25,17:30,0.306,0.189,0.315,0.303,0.276,0.161,0.099,west-northwest,8.7,No
2018/01/25,17:40,0.307,0.189,0.314,0.302,0.277,0.161,0.098,west,9.8,No
2018/01/25,17:50,0.307,0.189,0.315,0.304,0.275,0.161,0.098,west-northwest,8.2,No
2018/01/25,18:00,0.307,0.188,0.314,0.303,0.278,0.160,0.098,west,9.2,No
2018/01/25,18:10,0.306,0.188,0.315,0.302,0.277,0.161,0.098,west-northwest,7.6,No
2018/01/25,18:20,0.307,0.189,0.316,0.302,0.276,0.161,0.097,west,9.0,No
2018/01/25,18:30,0.306,0.189,0.314,0.303,0.275,0.160,0.098,west,7.4,No
2018/01/25,18:40,0.306,0.189,0.314,0.303,0.276,0.160,0.098,west,9.0,No
2018/01/25,18:50,0.307,0.188,0.315,0.303,0.276,0.161,0.099,west,9.8,No
2018/01/25,19:00,0.307,0.188,0.314,0.303,0.276,0.161,0.098,west,10.9,No
2018/01/25,19:10,0.305,0.190,0.313,0.302,0.276,0.161,0.098,west-northwest,8.1,No
2018/01/25,19:20,0.305,0.189,0.314,0.302,0.277,0.161,0.098,west-northwest,7.7,No
2018/01/25,19:30,0.306,0.189,0.313,0.302,0.277,0.159,0.097,west,7.3,No
2018/01/25,19:40,0.306,0.188,0.314,0.301,0.276,0.161,0.098,west,8.8,No
2018/01/25,19:50,0.306,0.188,0.314,0.303,0.277,0.161,0.098,west,10.3,No
2018/01/25,20:00,0.305,0.189,0.314,0.303,0.276,0.160,0.098,west,7.1,No
2018/01/25,20:10,0.307,0.188,0.314,0.304,0.277,0.160,0.098,west,5.7,No
2018/01/25,20:20,0.306,0.189,0.313,0.302,0.275,0.161,0.098,west,3.1,No
2018/01/25,20:30,0.307,0.189,0.313,0.302,0.276,0.161,0.098,west,5.9,No
2018/01/25,20:40,0.305,0.189,0.313,0.303,0.276,0.160,0.098,west-northwest,5.2,No
2018/01/25,20:50,0.306,0.189,0.314,0.302,0.274,0.160,0.097,west,5.3,No
2018/01/25,21:00,0.306,0.188,0.313,0.302,0.276,0.160,0.097,west,3.5,No
2018/01/25,21:10,0.306,0.187,0.314,0.301,0.275,0.160,0.097,west-southwest,5.1,No
2018/01/25,21:20,0.306,0.188,0.313,0.302,0.276,0.160,0.098,west-southwest,3.7,No
2018/01/25,21:30,0.305,0.189,0.312,0.302,0.276,0.160,0.097,west-southwest,2.2,No
2018/01/25,21:40,0.306,0.189,0.313,0.303,0.275,0.159,0.098,south-southwest,1.6,No
2018/01/25,21:50,0.307,0.188,0.314,0.302,0.276,0.160,0.098,west-southwest,4.2,No
2018/01/25,22:00,0.304,0.188,0.313,0.301,0.273,0.160,0.098,west-southwest,1.8,No
2018/01/25,22:10,0.306,0.188,0.314,0.302,0.272,0.160,0.098,west-southwest,2.9,No
2018/01/25,22:20,0.305,0.188,0.313,0.302,0.274,0.161,0.098,southwest,2.8,No
2018/01/25,22:30,0.305,0.189,0.313,0.302,0.276,0.160,0.098,southwest,3.6,Yes
2018/01/25,22:40,0.306,0.188,0.312,0.303,0.276,0.160,0.098,southwest,3.6,No
2018/01/25,22:50,0.307,0.188,0.313,0.303,0.274,0.161,0.098,southwest,4.2,No
2018/01/25,23:00,0.307,0.188,0.315,0.303,0.273,0.160,0.098,southwest,3.8,Yes
2018/01/25,23:10,0.306,0.188,0.313,0.303,0.275,0.160,0.098,southwest,4.2,Yes
2018/01/25,23:20,0.307,0.189,0.313,0.303,0.274,0.161,0.098,south-southwest,4.2,Yes
2018/01/25,23:30,0.306,0.190,0.315,0.303,0.276,0.161,0.099,southwest,4.0,Yes
2018/01/25,23:40,0.307,0.189,0.313,0.304,0.274,0.161,0.099,south-southwest,3.8,Yes
2018/01/25,23:50,0.306,0.190,0.313,0.303,0.276,0.162,0.099,south-southwest,4.8,Yes
